Regional Weather Roundup
Issued by NWS Jackson, KY

Home | Current Version | Previous Version | Graphics & Text | Print | Product List | Glossary On
Versions: 1 2 3 4 5 6 7 8 9 10 11 12 13 14 15 16 17 18 19 20 21 22 23 24 25 26 27
000
ASUS43 KJKL 230710
RWRJKL

EAST KENTUCKY HOURLY WEATHER ROUNDUP
NATIONAL WEATHER SERVICE JACKSON KY
300 AM EDT SAT JUL 23 2016

NOTE: "FAIR" INDICATES FEW OR NO CLOUDS BELOW 12,000 FEET WITH
NO SIGNIFICANT WEATHER AND/OR OBSTRUCTIONS TO VISIBILITY.

* THESE REPORTS ARE NOT UNDER NWS QUALITY CONTROL AND MAY NOT
  REPORT WEATHER SUCH AS PRECIPITATION AND FOG.

KYZ079-080-083-085-087-088-110-112-115-119-120-230800
...EASTERN KENTUCKY...

CITY           SKY/WX    TMP DP  RH WIND       PRES   REMARKS
JACKSON        CLOUDY    70  68  93 CALM      30.07S FOG
LONDON         PTCLDY    73  69  87 CALM      30.06S
SOMERSET*      PTCLDY    70  70 100 CALM      30.06R FOG
MONTICELLO*    CLOUDY   N/A N/A N/A N9        30.06R
WILLIAMSBURG*  MOSUNNY   72  72 100 CALM      30.05F
MIDDLESBORO*   CLOUDY    75  73  92 CALM      30.06S
HARLAN APT*      N/A     73  70  88 CALM      30.08S
PIKE CO APT*     N/A     70  70 100 CALM      30.07F
BIG SANDY APT* MOSUNNY   70  70 100 CALM      30.06F FOG
MOREHEAD APT*  FOG       70  70 100 CALM      30.08R VSB 1/4
ASHLAND*       CLOUDY    72  70  94 CALM      30.02S VSB 1/4
$$

KYZ035-036-041-042-044-050-067-078-099-230800
...CENTRAL KENTUCKY...

CITY           SKY/WX    TMP DP  RH WIND       PRES   REMARKS
MT STERLING*   CLEAR     70  70 100 CALM      30.06S
FLEMING/MASON* CLEAR     69  69  99 S5        30.05F FOG
DANVILLE*      CLOUDY    70  70 100 CALM      30.06S
RICHMOND*      CLOUDY    72  70  94 CALM      30.05S
LEXINGTON      CLEAR     72  69  90 CALM      30.05S
FRANKFORT      CLEAR     73  69  87 CALM      30.03S
LOUISVILLE     PTCLDY    77  71  82 CALM      30.01S
LEBANON*         N/A     73  72  94 CALM      30.04S FOG
GLASGOW*       PTCLDY    74  74 100 E3        30.02S
BOWLING GREEN  CLEAR     75  73  93 CALM      30.01S
$$

KYZ091>093-OHZ055-061-077-WVZ005-015-034-035-042-230800
...SOUTHERN OHIO/WEST VIRGINIA...

CITY           SKY/WX    TMP DP  RH WIND       PRES   REMARKS
COVINGTON      CLEAR     73  71  93 CALM      30.03F
COLUMBUS       CLEAR     72  69  90 CALM      30.01F
DAYTON         PTCLDY    73  71  93 SW6       30.04S
WILMINGTON     CLEAR     71  69  93 W3        30.03F
HUNTINGTON     FOG       69  68  96 CALM      30.05R VSB 1/4
CHARLESTON       N/A     70  68  93 CALM      30.04F
PINEVILLE*     FOG       70  67  90 MISG      30.13F VSB 3/4
BECKLEY          N/A     67  65  93 S5        30.13F
BLUEFIELD        N/A     66  63  90 CALM      30.16S
LOGAN CO APT*    N/A     72  70  94 CALM      30.06F
$$

VAZ002-007-008-TNZ017-027-036-066-071-230800
...SOUTHWEST VIRGINIA/EAST TENNESSEE...

CITY           SKY/WX    TMP DP  RH WIND       PRES   REMARKS
WISE*            N/A     73  59  60 CALM      30.14F
JONESVILLE*      N/A     73  73 100 CALM      30.08F
ABINGDON*        N/A     72  67  85 CALM      30.10F
BRISTOL        CLOUDY    73  69  87 CALM      30.07S
MORRISTOWN*    MOSUNNY   77  72  83 CALM      30.04F
SEVIERVILLE*   SUNNY     75  70  83 CALM      30.02F
OAK RIDGE      CLOUDY    79  73  82 CALM      30.03F
CROSSVILLE     PTCLDY    75  73  93 CALM      30.08F
NASHVILLE      MOCLDY    76  71  85 CALM      30.01S
$$

...KEY TO REMARKS...
VSB - VISIBILITY IN MILES
WCI - WIND CHILL INDEX
HX  - HEAT INDEX

$$




USA.gov is the U.S. government's official web portal to all federal, state and local government web resources and services.